DAL330 KLAX-PHNL

Flight info

Callsign DAL330
Flight time 5h 21m
Altitude 40000
Route SUMMR2 DINTY DUETS 3335N12855W DADIE R576 DENNS MAGGI3
Aircraft A359/H-SDE2E3GHIJ3J4J5LM1ORWXY/LB1D1

Departure

Time 2026-04-26 16:32
Airport Los Angeles International Airport (KLAX)

Arrival

Time 2026-04-26 21:54
Airport Daniel K. Inouye International Airport (PHNL)
Time Latitude Longitude Altitude Speed Heading
2026-04-26 16:15 33.94725 -118.40495 132 ft 0 kts 130°
2026-04-26 16:25 33.94728 -118.40498 132 ft 2 kts 130°
2026-04-26 16:25 33.94739 -118.40515 132 ft 3 kts 130°
2026-04-26 16:25 33.94752 -118.40534 132 ft 3 kts 130°
2026-04-26 16:26 33.94766 -118.40552 132 ft 3 kts 130°
2026-04-26 16:26 33.94774 -118.40565 132 ft 3 kts 130°
2026-04-26 16:26 33.94783 -118.40578 132 ft 0 kts 130°
2026-04-26 16:28 33.94786 -118.40549 125 ft 9 kts 77°
2026-04-26 16:29 33.94799 -118.40447 125 ft 14 kts 82°
2026-04-26 16:29 33.94811 -118.40335 132 ft 10 kts 82°
2026-04-26 16:29 33.94843 -118.40299 127 ft 7 kts
2026-04-26 16:29 33.94887 -118.40281 129 ft 6 kts 43°
2026-04-26 16:30 33.94904 -118.40226 124 ft 8 kts 84°
2026-04-26 16:30 33.94912 -118.40138 132 ft 13 kts 83°
2026-04-26 16:30 33.94923 -118.40020 132 ft 15 kts 83°
2026-04-26 16:30 33.94974 -118.39920 124 ft 15 kts 21°
2026-04-26 16:31 33.95031 -118.39930 126 ft 5 kts 311°
2026-04-26 16:31 33.95037 -118.39998 132 ft 5 kts 264°
2026-04-26 16:31 33.95036 -118.40002 132 ft 0 kts 264°
2026-04-26 16:31 33.95032 -118.40050 124 ft 28 kts 263°
2026-04-26 16:32 33.94979 -118.40568 126 ft 94 kts 263°
2026-04-26 16:32 33.94915 -118.41189 125 ft 131 kts 263°
2026-04-26 16:32 33.94783 -118.42460 318 ft 165 kts 262°
2026-04-26 16:32 33.94567 -118.44250 1400 ft 157 kts 261°
2026-04-26 16:33 33.94467 -118.45157 1781 ft 168 kts 262°
2026-04-26 16:33 33.94313 -118.46640 2041 ft 194 kts 262°
2026-04-26 16:33 33.94197 -118.48381 2257 ft 223 kts 266°
2026-04-26 16:33 33.94144 -118.50330 2796 ft 238 kts 267°
2026-04-26 16:34 33.94065 -118.52335 3609 ft 241 kts 264°
2026-04-26 16:34 33.93905 -118.54376 4403 ft 245 kts 264°
2026-04-26 16:34 33.93733 -118.56403 5174 ft 247 kts 264°
2026-04-26 16:34 33.93561 -118.58473 5972 ft 249 kts 264°
2026-04-26 16:35 33.93392 -118.60561 6751 ft 252 kts 264°
2026-04-26 16:35 33.93223 -118.62679 7522 ft 255 kts 265°
2026-04-26 16:35 33.93054 -118.64809 8351 ft 257 kts 265°
2026-04-26 16:35 33.92888 -118.66944 9170 ft 260 kts 265°
2026-04-26 16:36 33.92719 -118.69124 9981 ft 263 kts 265°
2026-04-26 16:36 33.92544 -118.71370 10478 ft 278 kts 265°
2026-04-26 16:36 33.92356 -118.73772 10786 ft 298 kts 265°
2026-04-26 16:36 33.92153 -118.76342 11072 ft 318 kts 265°
2026-04-26 16:37 33.91940 -118.79068 11439 ft 334 kts 265°
2026-04-26 16:37 33.91725 -118.81851 12079 ft 340 kts 266°
2026-04-26 16:37 33.91659 -118.84710 12827 ft 342 kts 271°
2026-04-26 16:37 33.91730 -118.87585 13600 ft 344 kts 272°
2026-04-26 16:38 33.91822 -118.90478 14287 ft 347 kts 272°
2026-04-26 16:38 33.91912 -118.93398 14905 ft 351 kts 272°
2026-04-26 16:38 33.92001 -118.96329 15500 ft 355 kts 272°
2026-04-26 16:38 33.92124 -118.99318 16077 ft 360 kts 275°
2026-04-26 16:39 33.92674 -119.02272 16648 ft 364 kts 289°
2026-04-26 16:39 33.93835 -119.05011 17285 ft 369 kts 298°
2026-04-26 16:39 33.95194 -119.07659 17892 ft 373 kts 299°
2026-04-26 16:39 33.96585 -119.10321 18457 ft 378 kts 299°
2026-04-26 16:40 33.97978 -119.12993 18989 ft 382 kts 299°
2026-04-26 16:40 33.99406 -119.15727 19561 ft 385 kts 300°
2026-04-26 16:40 34.01032 -119.18313 20138 ft 391 kts 308°
2026-04-26 16:40 34.03064 -119.20533 20752 ft 397 kts 319°
2026-04-26 16:41 34.05311 -119.22518 21309 ft 402 kts 320°
2026-04-26 16:41 34.07614 -119.24481 21863 ft 407 kts 321°
2026-04-26 16:41 34.09860 -119.26508 22424 ft 407 kts 315°
2026-04-26 16:41 34.11835 -119.28961 23025 ft 406 kts 304°
2026-04-26 16:42 34.13326 -119.31861 23562 ft 406 kts 292°
2026-04-26 16:42 34.14171 -119.35066 24019 ft 407 kts 278°
2026-04-26 16:42 34.14299 -119.38483 24499 ft 409 kts 264°
2026-04-26 16:42 34.13812 -119.41886 24988 ft 412 kts 257°
2026-04-26 16:43 34.13163 -119.45268 25485 ft 415 kts 256°
2026-04-26 16:43 34.12492 -119.48672 25994 ft 417 kts 256°
2026-04-26 16:43 34.11822 -119.52084 26493 ft 419 kts 256°
2026-04-26 16:43 34.11150 -119.55513 26974 ft 420 kts 256°
2026-04-26 16:44 34.10479 -119.58953 27521 ft 421 kts 256°
2026-04-26 16:44 34.09812 -119.62369 28012 ft 424 kts 256°
2026-04-26 16:44 34.09135 -119.65837 28468 ft 426 kts 256°
2026-04-26 16:44 34.08453 -119.69326 28916 ft 429 kts 256°
2026-04-26 16:45 34.07763 -119.72849 29354 ft 431 kts 256°
2026-04-26 16:45 34.07072 -119.76380 29767 ft 433 kts 256°
2026-04-26 16:45 34.06375 -119.79931 30151 ft 435 kts 256°
2026-04-26 16:45 34.05682 -119.83456 30468 ft 438 kts 256°
2026-04-26 16:46 34.04974 -119.87047 30731 ft 440 kts 256°
2026-04-26 16:46 34.04264 -119.90650 31071 ft 441 kts 256°
2026-04-26 16:46 34.03552 -119.94260 31408 ft 442 kts 256°
2026-04-26 16:46 34.02835 -119.97880 31703 ft 444 kts 256°
2026-04-26 16:47 34.02117 -120.01505 32056 ft 443 kts 256°
2026-04-26 16:47 34.01411 -120.05066 32505 ft 441 kts 256°
2026-04-26 16:47 34.00696 -120.08656 32947 ft 438 kts 256°
2026-04-26 16:47 33.99985 -120.12226 33361 ft 436 kts 255°
2026-04-26 16:48 33.99277 -120.15770 33801 ft 433 kts 255°
2026-04-26 16:48 33.98573 -120.19289 34194 ft 431 kts 255°
2026-04-26 16:48 33.97870 -120.22801 34500 ft 430 kts 255°
2026-04-26 16:48 33.97161 -120.26331 34526 ft 436 kts 255°
2026-04-26 16:49 33.96455 -120.29848 34687 ft 437 kts 255°
2026-04-26 16:49 33.95740 -120.33408 34984 ft 435 kts 255°
2026-04-26 16:49 33.95026 -120.36953 35297 ft 433 kts 255°
2026-04-26 16:49 33.94313 -120.40490 35570 ft 432 kts 255°
2026-04-26 16:50 33.93603 -120.44010 35806 ft 432 kts 255°
2026-04-26 16:50 33.92892 -120.47528 36010 ft 432 kts 255°
2026-04-26 16:50 33.92190 -120.50996 36248 ft 431 kts 255°
2026-04-26 16:50 33.91478 -120.54510 36475 ft 431 kts 255°
2026-04-26 16:51 33.90766 -120.58017 36694 ft 430 kts 255°
2026-04-26 16:51 33.90054 -120.61518 36908 ft 429 kts 255°
2026-04-26 16:51 33.89350 -120.64974 37123 ft 429 kts 254°
2026-04-26 16:51 33.88637 -120.68469 37333 ft 428 kts 254°
2026-04-26 16:52 33.87926 -120.71951 37533 ft 428 kts 254°
2026-04-26 16:52 33.87453 -120.74262 37672 ft 427 kts 254°
2026-04-26 16:52 33.86503 -120.78899 37927 ft 427 kts 254°
2026-04-26 16:52 33.85790 -120.82375 38109 ft 426 kts 254°
2026-04-26 16:53 33.85088 -120.85790 38292 ft 425 kts 254°
2026-04-26 16:53 33.84374 -120.89256 38465 ft 425 kts 254°
2026-04-26 16:53 33.83661 -120.92716 38629 ft 425 kts 254°
2026-04-26 16:53 33.82948 -120.96165 38772 ft 424 kts 254°
2026-04-26 16:54 33.81527 -121.03029 38946 ft 425 kts 254°
2026-04-26 16:54 33.80809 -121.06492 39055 ft 425 kts 254°
2026-04-26 16:54 33.80089 -121.09953 39156 ft 425 kts 254°
2026-04-26 16:55 33.79369 -121.13411 39260 ft 425 kts 254°
2026-04-26 16:55 33.78659 -121.16821 39360 ft 425 kts 254°
2026-04-26 16:55 33.77213 -121.23740 39541 ft 425 kts 254°
2026-04-26 16:56 33.75766 -121.30646 39706 ft 426 kts 254°
2026-04-26 16:56 33.75049 -121.34057 39785 ft 426 kts 254°
2026-04-26 16:57 33.73590 -121.40991 39962 ft 426 kts 254°
2026-04-26 16:57 33.71404 -121.51333 40043 ft 428 kts 253°
2026-04-26 16:58 33.70181 -121.57100 40047 ft 428 kts 253°
2026-04-26 16:59 33.67727 -121.68630 40050 ft 428 kts 253°
2026-04-26 17:00 33.64761 -121.82488 40051 ft 428 kts 253°
2026-04-26 17:00 33.62534 -121.92837 40050 ft 427 kts 253°
2026-04-26 17:01 33.61050 -121.99709 40053 ft 427 kts 253°
2026-04-26 17:01 33.59552 -122.06626 40054 ft 427 kts 253°
2026-04-26 17:02 33.58059 -122.13502 40051 ft 427 kts 253°
2026-04-26 17:02 33.56552 -122.20418 40057 ft 427 kts 253°
2026-04-26 17:03 33.55044 -122.27326 40057 ft 427 kts 253°
2026-04-26 17:03 33.53541 -122.34186 40056 ft 427 kts 253°
2026-04-26 17:04 33.52022 -122.41096 40058 ft 428 kts 253°
2026-04-26 17:04 33.50501 -122.48003 40058 ft 428 kts 253°
2026-04-26 17:05 33.48986 -122.54860 40056 ft 428 kts 253°
2026-04-26 17:05 33.47465 -122.61769 40066 ft 428 kts 253°
2026-04-26 17:06 33.46006 -122.68711 40066 ft 428 kts 254°
2026-04-26 17:06 33.44590 -122.75600 40056 ft 428 kts 254°
2026-04-26 17:07 33.43160 -122.82548 40065 ft 428 kts 254°
2026-04-26 17:07 33.41726 -122.89474 40064 ft 428 kts 254°
2026-04-26 17:08 33.40292 -122.96370 40071 ft 428 kts 254°
2026-04-26 17:08 33.38847 -123.03297 40064 ft 428 kts 254°
2026-04-26 17:09 33.37640 -123.09063 40065 ft 429 kts 254°
2026-04-26 17:09 33.35951 -123.17114 40071 ft 429 kts 254°
2026-04-26 17:10 33.34491 -123.24048 40066 ft 429 kts 254°
2026-04-26 17:10 33.33033 -123.30955 40069 ft 431 kts 254°
2026-04-26 17:11 33.31557 -123.37925 40070 ft 432 kts 254°
2026-04-26 17:11 33.30086 -123.44854 40070 ft 431 kts 254°
2026-04-26 17:12 33.27857 -123.55308 40069 ft 431 kts 254°
2026-04-26 17:13 33.25632 -123.65702 40072 ft 431 kts 254°
2026-04-26 17:14 33.23397 -123.76095 40072 ft 432 kts 254°
2026-04-26 17:14 33.21144 -123.86522 40076 ft 432 kts 254°
2026-04-26 17:15 33.18891 -123.96907 40074 ft 432 kts 254°
2026-04-26 17:16 33.17385 -124.03826 40076 ft 432 kts 254°
2026-04-26 17:16 33.15866 -124.10783 40077 ft 432 kts 254°
2026-04-26 17:17 33.14343 -124.17736 40078 ft 432 kts 254°
2026-04-26 17:17 33.12826 -124.24643 40082 ft 432 kts 254°
2026-04-26 17:18 33.11295 -124.31595 40077 ft 432 kts 254°
2026-04-26 17:18 33.09773 -124.38486 40080 ft 432 kts 254°
2026-04-26 17:19 33.07603 -124.48938 40076 ft 433 kts 259°
2026-04-26 17:19 33.07452 -124.56080 40086 ft 436 kts 273°
2026-04-26 17:20 33.07974 -124.60880 40084 ft 436 kts 274°
2026-04-26 17:20 33.09266 -124.70398 40083 ft 436 kts 275°
2026-04-26 17:21 33.10248 -124.77499 40083 ft 436 kts 275°
2026-04-26 17:21 33.11207 -124.84635 40075 ft 436 kts 275°
2026-04-26 17:22 33.11992 -124.90575 40085 ft 436 kts 275°
2026-04-26 17:22 33.12930 -124.97716 40081 ft 436 kts 275°
2026-04-26 17:23 33.13868 -125.04885 40086 ft 435 kts 275°
2026-04-26 17:23 33.14793 -125.11972 40086 ft 435 kts 275°
2026-04-26 17:24 33.15719 -125.19107 40088 ft 435 kts 275°
2026-04-26 17:24 33.16643 -125.26261 40078 ft 435 kts 275°
2026-04-26 17:25 33.17560 -125.33392 40089 ft 436 kts 275°
2026-04-26 17:25 33.18478 -125.40563 40086 ft 436 kts 275°
2026-04-26 17:26 33.19388 -125.47701 40083 ft 436 kts 275°
2026-04-26 17:26 33.20299 -125.54884 40094 ft 436 kts 275°
2026-04-26 17:27 33.21204 -125.62055 40089 ft 436 kts 275°
2026-04-26 17:27 33.22100 -125.69183 40077 ft 436 kts 275°
2026-04-26 17:28 33.22997 -125.76359 40086 ft 437 kts 275°
2026-04-26 17:28 33.23895 -125.83561 40085 ft 438 kts 275°
2026-04-26 17:29 33.24640 -125.89551 40089 ft 438 kts 275°
2026-04-26 17:29 33.25677 -125.97947 40092 ft 438 kts 275°
2026-04-26 17:30 33.26561 -126.05154 40087 ft 438 kts 275°
2026-04-26 17:30 33.27437 -126.12329 40095 ft 438 kts 275°
2026-04-26 17:31 33.28313 -126.19548 40103 ft 438 kts 275°
2026-04-26 17:31 33.29180 -126.26726 40091 ft 440 kts 275°
2026-04-26 17:32 33.30051 -126.33973 40090 ft 440 kts 275°
2026-04-26 17:32 33.30919 -126.41223 40091 ft 440 kts 275°
2026-04-26 17:33 33.31777 -126.48438 40091 ft 440 kts 275°
2026-04-26 17:34 33.33063 -126.59312 40092 ft 439 kts 275°
2026-04-26 17:34 33.33911 -126.66524 40105 ft 439 kts 275°
2026-04-26 17:35 33.34760 -126.73789 40096 ft 441 kts 275°
2026-04-26 17:35 33.35608 -126.81079 40093 ft 441 kts 275°
2026-04-26 17:36 33.36445 -126.88312 40092 ft 441 kts 275°
2026-04-26 17:36 33.37285 -126.95610 40094 ft 441 kts 275°
2026-04-26 17:37 33.38113 -127.02846 40095 ft 441 kts 275°
2026-04-26 17:37 33.38942 -127.10128 40096 ft 440 kts 275°
2026-04-26 17:38 33.40173 -127.21006 40100 ft 443 kts 275°
2026-04-26 17:38 33.40996 -127.28338 40096 ft 443 kts 275°
2026-04-26 17:39 33.41809 -127.35606 40098 ft 443 kts 275°
2026-04-26 17:39 33.42622 -127.42926 40101 ft 442 kts 275°
2026-04-26 17:40 33.43296 -127.49012 40097 ft 442 kts 275°
2026-04-26 17:40 33.44230 -127.57510 40103 ft 442 kts 275°
2026-04-26 17:41 33.45027 -127.64795 40103 ft 443 kts 275°
2026-04-26 17:41 33.45823 -127.72122 40096 ft 444 kts 275°
2026-04-26 17:42 33.46613 -127.79424 40103 ft 443 kts 275°
2026-04-26 17:42 33.47398 -127.86727 40104 ft 443 kts 275°
2026-04-26 17:43 33.48181 -127.94044 40107 ft 443 kts 275°
2026-04-26 17:43 33.48960 -128.01381 40104 ft 442 kts 275°
2026-04-26 17:44 33.49730 -128.08660 40107 ft 443 kts 275°
2026-04-26 17:44 33.50505 -128.16039 40106 ft 446 kts 275°
2026-04-26 17:45 33.51272 -128.23381 40101 ft 445 kts 275°
2026-04-26 17:45 33.52039 -128.30760 40103 ft 444 kts 275°
2026-04-26 17:46 33.52794 -128.38076 40108 ft 444 kts 274°
2026-04-26 17:46 33.53551 -128.45446 40103 ft 444 kts 274°
2026-04-26 17:47 33.54175 -128.51564 40109 ft 445 kts 274°
2026-04-26 17:47 33.55046 -128.60147 40100 ft 447 kts 274°
2026-04-26 17:48 33.55795 -128.67568 40101 ft 447 kts 274°
2026-04-26 17:48 33.56532 -128.74921 40107 ft 446 kts 274°
2026-04-26 17:49 33.57177 -128.82335 40112 ft 444 kts 270°
2026-04-26 17:49 33.56583 -128.89669 40106 ft 442 kts 255°
2026-04-26 17:50 33.54246 -128.96436 40109 ft 445 kts 239°
2026-04-26 17:50 33.50422 -129.02332 40104 ft 450 kts 231°
2026-04-26 17:51 33.46250 -129.07919 40114 ft 452 kts 230°
2026-04-26 17:51 33.42023 -129.13514 40112 ft 452 kts 230°
2026-04-26 17:52 33.37816 -129.19140 40117 ft 452 kts 230°
2026-04-26 17:52 33.33658 -129.24732 40112 ft 452 kts 230°
2026-04-26 17:53 33.29469 -129.30367 40112 ft 452 kts 230°
2026-04-26 17:54 33.23198 -129.38782 40116 ft 452 kts 230°
2026-04-26 17:54 33.19028 -129.44364 40117 ft 452 kts 230°
2026-04-26 17:55 33.14827 -129.49980 40109 ft 451 kts 230°
2026-04-26 17:55 33.10670 -129.55526 40117 ft 450 kts 230°
2026-04-26 17:56 33.06496 -129.61088 40115 ft 449 kts 230°
2026-04-26 17:57 32.98167 -129.72162 40117 ft 449 kts 230°
2026-04-26 17:57 32.93987 -129.77706 40119 ft 449 kts 230°
2026-04-26 17:58 32.85643 -129.88748 40125 ft 449 kts 230°
2026-04-26 17:59 32.79387 -129.97005 40125 ft 449 kts 230°
2026-04-26 17:59 32.75198 -130.02523 40124 ft 449 kts 230°
2026-04-26 18:00 32.71042 -130.07988 40124 ft 446 kts 230°
2026-04-26 18:00 32.66881 -130.13452 40129 ft 445 kts 230°
2026-04-26 18:01 32.62721 -130.18909 40126 ft 445 kts 230°
2026-04-26 18:01 32.58563 -130.24355 40126 ft 445 kts 230°
2026-04-26 18:02 32.55802 -130.27966 40124 ft 445 kts 230°
2026-04-26 18:02 32.50262 -130.35200 40128 ft 444 kts 230°
2026-04-26 18:03 32.46090 -130.40639 40130 ft 444 kts 230°
2026-04-26 18:03 32.41949 -130.46029 40129 ft 444 kts 230°
2026-04-26 18:04 32.37779 -130.51449 40129 ft 444 kts 230°
2026-04-26 18:05 32.31563 -130.59513 40122 ft 444 kts 230°
2026-04-26 18:05 32.27393 -130.64912 40131 ft 442 kts 230°
2026-04-26 18:06 32.23274 -130.70238 40132 ft 441 kts 230°
2026-04-26 18:06 32.19132 -130.75587 40137 ft 441 kts 230°
2026-04-26 18:07 32.14982 -130.80939 40134 ft 441 kts 230°
2026-04-26 18:07 32.10828 -130.86288 40135 ft 441 kts 230°
2026-04-26 18:08 32.06676 -130.91626 40132 ft 441 kts 230°
2026-04-26 18:08 32.02525 -130.96953 40141 ft 440 kts 230°
2026-04-26 18:09 31.98403 -131.02236 40137 ft 440 kts 230°
2026-04-26 18:09 31.94249 -131.07555 40139 ft 440 kts 230°
2026-04-26 18:10 31.90798 -131.11967 40126 ft 440 kts 230°
2026-04-26 18:10 31.85989 -131.18103 40140 ft 436 kts 230°
2026-04-26 18:11 31.82556 -131.22480 40139 ft 436 kts 230°
2026-04-26 18:11 31.78454 -131.27704 40143 ft 436 kts 230°
2026-04-26 18:12 31.74333 -131.32944 40142 ft 436 kts 230°
2026-04-26 18:12 31.70220 -131.38166 40142 ft 436 kts 230°
2026-04-26 18:13 31.66090 -131.43401 40146 ft 435 kts 230°
2026-04-26 18:13 31.61993 -131.48588 40146 ft 435 kts 230°
2026-04-26 18:14 31.57865 -131.53807 40145 ft 435 kts 230°
2026-04-26 18:14 31.53739 -131.59016 40142 ft 435 kts 230°
2026-04-26 18:15 31.49642 -131.64179 40129 ft 434 kts 231°
2026-04-26 18:15 31.45540 -131.69341 40144 ft 431 kts 231°
2026-04-26 18:16 31.41447 -131.74488 40143 ft 430 kts 231°
2026-04-26 18:16 31.35334 -131.82161 40140 ft 429 kts 231°
2026-04-26 18:17 31.31284 -131.87235 40150 ft 428 kts 231°
2026-04-26 18:17 31.27214 -131.92329 40158 ft 428 kts 231°
2026-04-26 18:18 31.23158 -131.97398 40154 ft 428 kts 231°
2026-04-26 18:18 31.19078 -132.02490 40147 ft 427 kts 231°
2026-04-26 18:19 31.15009 -132.07559 40148 ft 427 kts 231°
2026-04-26 18:19 31.11236 -132.12807 40154 ft 423 kts 239°
2026-04-26 18:20 31.08617 -132.18898 40157 ft 417 kts 250°
2026-04-26 18:20 31.06974 -132.24196 40153 ft 416 kts 251°
2026-04-26 18:21 31.04812 -132.31640 40159 ft 415 kts 252°
2026-04-26 18:21 31.02966 -132.37976 40161 ft 415 kts 252°
2026-04-26 18:22 31.01085 -132.44342 40158 ft 414 kts 251°
2026-04-26 18:22 30.99195 -132.50695 40160 ft 414 kts 251°
2026-04-26 18:23 30.97318 -132.56991 40162 ft 414 kts 251°
2026-04-26 18:23 30.95423 -132.63335 40158 ft 413 kts 251°
2026-04-26 18:24 30.93533 -132.69649 40162 ft 412 kts 251°
2026-04-26 18:24 30.91646 -132.75946 40165 ft 412 kts 251°
2026-04-26 18:25 30.89752 -132.82250 40162 ft 412 kts 251°
2026-04-26 18:25 30.87864 -132.88522 40167 ft 412 kts 251°
2026-04-26 18:26 30.85958 -132.94840 40168 ft 412 kts 251°
2026-04-26 18:26 30.84061 -133.01117 40167 ft 412 kts 251°
2026-04-26 18:27 30.82154 -133.07414 40170 ft 412 kts 251°
2026-04-26 18:27 30.80248 -133.13694 40167 ft 411 kts 251°
2026-04-26 18:28 30.78338 -133.19976 40170 ft 411 kts 251°
2026-04-26 18:28 30.76440 -133.26207 40168 ft 411 kts 251°
2026-04-26 18:29 30.74524 -133.32483 40176 ft 411 kts 251°
2026-04-26 18:29 30.72607 -133.38751 40172 ft 411 kts 251°
2026-04-26 18:30 30.70686 -133.45021 40171 ft 411 kts 251°
2026-04-26 18:30 30.68775 -133.51242 40176 ft 410 kts 251°
2026-04-26 18:31 30.66852 -133.57493 40176 ft 410 kts 251°
2026-04-26 18:31 30.64926 -133.63742 40173 ft 410 kts 251°
2026-04-26 18:32 30.63006 -133.69960 40178 ft 411 kts 251°
2026-04-26 18:32 30.61075 -133.76200 40178 ft 411 kts 251°
2026-04-26 18:33 30.59138 -133.82446 40178 ft 411 kts 251°
2026-04-26 18:33 30.57196 -133.88698 40178 ft 410 kts 251°
2026-04-26 18:34 30.55267 -133.94895 40181 ft 410 kts 251°
2026-04-26 18:34 30.53321 -134.01136 40186 ft 410 kts 251°
2026-04-26 18:35 30.51381 -134.07348 40180 ft 412 kts 251°
2026-04-26 18:35 30.49420 -134.13611 40181 ft 412 kts 251°
2026-04-26 18:36 30.47470 -134.19827 40181 ft 412 kts 251°
2026-04-26 18:36 30.45508 -134.26070 40182 ft 412 kts 250°
2026-04-26 18:37 30.43542 -134.32313 40184 ft 413 kts 250°
2026-04-26 18:37 30.41571 -134.38563 40184 ft 413 kts 250°
2026-04-26 18:38 30.39605 -134.44784 40181 ft 413 kts 250°
2026-04-26 18:38 30.37623 -134.51040 40187 ft 413 kts 250°
2026-04-26 18:39 30.35641 -134.57289 40184 ft 413 kts 250°
2026-04-26 18:39 30.33651 -134.63549 40191 ft 413 kts 250°
2026-04-26 18:40 30.31667 -134.69777 40188 ft 413 kts 250°
2026-04-26 18:40 30.29675 -134.76021 40175 ft 413 kts 250°
2026-04-26 18:41 30.27690 -134.82230 40192 ft 413 kts 250°
2026-04-26 18:41 30.25685 -134.88490 40193 ft 413 kts 250°
2026-04-26 18:42 30.23694 -134.94696 40184 ft 413 kts 250°
2026-04-26 18:42 30.21684 -135.00945 40179 ft 413 kts 250°
2026-04-26 18:43 30.19671 -135.07195 40188 ft 414 kts 250°
2026-04-26 18:43 30.17666 -135.13409 40192 ft 415 kts 250°
2026-04-26 18:44 30.15648 -135.19651 40202 ft 413 kts 250°
2026-04-26 18:44 30.13631 -135.25876 40193 ft 414 kts 250°
2026-04-26 18:45 30.11619 -135.32076 40195 ft 414 kts 250°
2026-04-26 18:45 30.09595 -135.38303 40195 ft 414 kts 250°
2026-04-26 18:46 30.07560 -135.44552 40184 ft 416 kts 250°
2026-04-26 18:46 30.05531 -135.50768 40196 ft 414 kts 250°
2026-04-26 18:47 30.03493 -135.57000 40195 ft 414 kts 250°
2026-04-26 18:47 30.01451 -135.63235 40200 ft 416 kts 250°
2026-04-26 18:48 29.99401 -135.69483 40197 ft 417 kts 250°
2026-04-26 18:48 29.97350 -135.75722 40196 ft 417 kts 250°
2026-04-26 18:49 29.95292 -135.81970 40198 ft 419 kts 250°
2026-04-26 18:49 29.93221 -135.88246 40197 ft 420 kts 250°
2026-04-26 18:50 29.91136 -135.94552 40201 ft 420 kts 250°
2026-04-26 18:50 29.89048 -136.00857 40200 ft 420 kts 250°
2026-04-26 18:51 29.86970 -136.07118 40201 ft 421 kts 250°
2026-04-26 18:51 29.84870 -136.13437 40203 ft 421 kts 250°
2026-04-26 18:52 29.82769 -136.19743 40203 ft 422 kts 250°
2026-04-26 18:52 29.80668 -136.26042 40194 ft 424 kts 250°
2026-04-26 18:53 29.78552 -136.32370 40206 ft 421 kts 250°
2026-04-26 18:53 29.76456 -136.38627 40208 ft 421 kts 250°
2026-04-26 18:54 29.74335 -136.44952 40203 ft 424 kts 250°
2026-04-26 18:54 29.72214 -136.51264 40205 ft 425 kts 250°
2026-04-26 18:55 29.70078 -136.57603 40218 ft 423 kts 250°
2026-04-26 18:55 29.67948 -136.63918 40206 ft 424 kts 250°
2026-04-26 18:56 29.65802 -136.70269 40205 ft 425 kts 250°
2026-04-26 18:56 29.63667 -136.76572 40208 ft 425 kts 250°
2026-04-26 18:57 29.62222 -136.80833 40173 ft 425 kts 250°
2026-04-26 18:57 29.59365 -136.89239 40208 ft 422 kts 249°
2026-04-26 18:58 29.57235 -136.95497 40207 ft 422 kts 249°
2026-04-26 18:58 29.55454 -137.00722 40209 ft 423 kts 250°
2026-04-26 18:59 29.53294 -137.07047 40207 ft 424 kts 249°
2026-04-26 18:59 29.51147 -137.13319 40207 ft 424 kts 249°
2026-04-26 19:00 29.48981 -137.19636 40210 ft 423 kts 249°
2026-04-26 19:00 29.46823 -137.25921 40212 ft 425 kts 249°
2026-04-26 19:01 29.44660 -137.32210 40212 ft 425 kts 249°
2026-04-26 19:01 29.42478 -137.38540 40195 ft 425 kts 249°
2026-04-26 19:02 29.40293 -137.44867 40212 ft 426 kts 249°
2026-04-26 19:02 29.38477 -137.50119 40211 ft 426 kts 249°
2026-04-26 19:03 29.35926 -137.57481 40215 ft 426 kts 249°
2026-04-26 19:03 29.33739 -137.63780 40214 ft 428 kts 249°
2026-04-26 19:04 29.31523 -137.70156 40206 ft 430 kts 249°
2026-04-26 19:04 29.29307 -137.76512 40207 ft 428 kts 249°
2026-04-26 19:05 29.25996 -137.85995 40214 ft 430 kts 249°
2026-04-26 19:06 29.23758 -137.92391 40214 ft 431 kts 249°
2026-04-26 19:06 29.21533 -137.98736 40207 ft 431 kts 249°
2026-04-26 19:07 29.19309 -138.05067 40213 ft 430 kts 249°
2026-04-26 19:07 29.17069 -138.11437 40214 ft 432 kts 249°
2026-04-26 19:08 29.14819 -138.17820 40213 ft 432 kts 249°
2026-04-26 19:08 29.12565 -138.24204 40216 ft 432 kts 250°
2026-04-26 19:09 29.10317 -138.30559 40217 ft 433 kts 249°
2026-04-26 19:09 29.08055 -138.36942 40218 ft 433 kts 249°
2026-04-26 19:10 29.05788 -138.43328 40215 ft 433 kts 249°
2026-04-26 19:10 29.03513 -138.49726 40216 ft 435 kts 250°
2026-04-26 19:11 29.01236 -138.56122 40221 ft 437 kts 250°
2026-04-26 19:11 28.98938 -138.62559 40220 ft 437 kts 249°
2026-04-26 19:12 28.96635 -138.68999 40223 ft 438 kts 250°
2026-04-26 19:12 28.94342 -138.75406 40221 ft 439 kts 250°
2026-04-26 19:13 28.92021 -138.81873 40223 ft 440 kts 250°
2026-04-26 19:13 28.89697 -138.88337 40218 ft 439 kts 249°
2026-04-26 19:14 28.87377 -138.94778 40213 ft 438 kts 249°
2026-04-26 19:14 28.85073 -139.01169 40216 ft 438 kts 249°
2026-04-26 19:15 28.82747 -139.07606 40219 ft 438 kts 249°
2026-04-26 19:15 28.80431 -139.14009 40226 ft 440 kts 250°
2026-04-26 19:16 28.78083 -139.20486 40225 ft 440 kts 249°
2026-04-26 19:16 28.75754 -139.26891 40225 ft 438 kts 249°
2026-04-26 19:17 28.73412 -139.33328 40223 ft 439 kts 250°
2026-04-26 19:17 28.71078 -139.39739 40221 ft 442 kts 250°
2026-04-26 19:18 28.68708 -139.46228 40225 ft 443 kts 249°
2026-04-26 19:18 28.66334 -139.52693 40226 ft 441 kts 249°
2026-04-26 19:19 28.63972 -139.59110 40226 ft 442 kts 249°
2026-04-26 19:19 28.61586 -139.65590 40224 ft 443 kts 249°
2026-04-26 19:20 28.59214 -139.72020 40222 ft 443 kts 249°
2026-04-26 19:20 28.56821 -139.78500 40209 ft 444 kts 249°
2026-04-26 19:21 28.54427 -139.84967 40224 ft 445 kts 249°
2026-04-26 19:21 28.52014 -139.91476 40227 ft 445 kts 249°
2026-04-26 19:22 28.49619 -139.97923 40222 ft 445 kts 249°
2026-04-26 19:22 28.47197 -140.04438 40225 ft 448 kts 249°
2026-04-26 19:23 28.44769 -140.10953 40219 ft 449 kts 249°
2026-04-26 19:23 28.42323 -140.17499 40225 ft 447 kts 249°
2026-04-26 19:24 28.39905 -140.23966 40228 ft 449 kts 249°
2026-04-26 19:24 28.36221 -140.33798 40227 ft 451 kts 249°
2026-04-26 19:25 28.34177 -140.39241 40227 ft 451 kts 249°
2026-04-26 19:25 28.31293 -140.46904 40227 ft 451 kts 249°
2026-04-26 19:26 28.28834 -140.53432 40226 ft 453 kts 249°
2026-04-26 19:26 28.26347 -140.60018 40230 ft 453 kts 249°
2026-04-26 19:27 28.23858 -140.66598 40225 ft 453 kts 250°
2026-04-26 19:27 28.21373 -140.73162 40211 ft 457 kts 249°
2026-04-26 19:28 28.18860 -140.79779 40227 ft 455 kts 249°
2026-04-26 19:28 28.16353 -140.86369 40227 ft 454 kts 249°
2026-04-26 19:29 28.13856 -140.92929 40232 ft 457 kts 249°
2026-04-26 19:29 28.11320 -140.99583 40227 ft 461 kts 249°
2026-04-26 19:30 28.08765 -141.06263 40236 ft 460 kts 249°
2026-04-26 19:30 28.06653 -141.11776 40230 ft 457 kts 249°
2026-04-26 19:31 28.03702 -141.19470 40228 ft 457 kts 249°
2026-04-26 19:31 28.01169 -141.26067 40223 ft 457 kts 249°
2026-04-26 19:32 27.98644 -141.32629 40230 ft 457 kts 249°
2026-04-26 19:32 27.96097 -141.39241 40226 ft 459 kts 249°
2026-04-26 19:33 27.93550 -141.45833 40225 ft 458 kts 249°
2026-04-26 19:33 27.90991 -141.52450 40224 ft 458 kts 249°
2026-04-26 19:34 27.88445 -141.59020 40223 ft 458 kts 249°
2026-04-26 19:34 27.85876 -141.65646 40227 ft 462 kts 249°
2026-04-26 19:35 27.83282 -141.72318 40228 ft 463 kts 249°
2026-04-26 19:35 27.80700 -141.78945 40227 ft 463 kts 249°
2026-04-26 19:36 27.78958 -141.83410 40229 ft 464 kts 249°
2026-04-26 19:36 27.75487 -141.92300 40232 ft 468 kts 249°
2026-04-26 19:37 27.72845 -141.99049 40231 ft 468 kts 249°
2026-04-26 19:37 27.70227 -142.05722 40223 ft 467 kts 249°
2026-04-26 19:38 27.67590 -142.12440 40232 ft 470 kts 249°
2026-04-26 19:38 27.64927 -142.19209 40230 ft 472 kts 249°
2026-04-26 19:39 27.62255 -142.25987 40234 ft 472 kts 249°
2026-04-26 19:39 27.59599 -142.32714 40226 ft 473 kts 249°
2026-04-26 19:40 27.56906 -142.39526 40225 ft 475 kts 249°
2026-04-26 19:40 27.54210 -142.46325 40227 ft 473 kts 249°
2026-04-26 19:41 27.51532 -142.53072 40224 ft 472 kts 249°
2026-04-26 19:41 27.49745 -142.57572 40230 ft 475 kts 249°
2026-04-26 19:42 27.46119 -142.66687 40229 ft 479 kts 249°
2026-04-26 19:42 27.43391 -142.73521 40231 ft 475 kts 248°
2026-04-26 19:43 27.40692 -142.80269 40231 ft 474 kts 249°
2026-04-26 19:43 27.37983 -142.87046 40229 ft 479 kts 249°
2026-04-26 19:44 27.35241 -142.93887 40230 ft 479 kts 249°
2026-04-26 19:44 27.32503 -143.00701 40230 ft 479 kts 249°
2026-04-26 19:45 27.29747 -143.07551 40231 ft 480 kts 248°
2026-04-26 19:45 27.26987 -143.14398 40229 ft 480 kts 248°
2026-04-26 19:46 27.24248 -143.21184 40228 ft 480 kts 248°
2026-04-26 19:46 27.21478 -143.28034 40227 ft 481 kts 248°
2026-04-26 19:47 27.19635 -143.32588 40227 ft 483 kts 248°
2026-04-26 19:47 27.15918 -143.41753 40230 ft 482 kts 248°
2026-04-26 19:48 27.13132 -143.48602 40233 ft 481 kts 248°
2026-04-26 19:48 27.10815 -143.54294 40230 ft 481 kts 248°
2026-04-26 19:49 27.07578 -143.62235 40233 ft 481 kts 248°
2026-04-26 19:49 27.05260 -143.67912 40228 ft 481 kts 248°
2026-04-26 19:50 27.02466 -143.74742 40219 ft 479 kts 248°
2026-04-26 19:50 26.99700 -143.81493 40230 ft 480 kts 248°
2026-04-26 19:51 26.96898 -143.88322 40229 ft 481 kts 248°
2026-04-26 19:51 26.94112 -143.95099 40231 ft 481 kts 248°
2026-04-26 19:52 26.91305 -144.01915 40227 ft 481 kts 248°
2026-04-26 19:52 26.88483 -144.08759 40227 ft 484 kts 247°
2026-04-26 19:53 26.85657 -144.15595 40228 ft 482 kts 247°
2026-04-26 19:53 26.82839 -144.22405 40227 ft 482 kts 247°
2026-04-26 19:54 26.80029 -144.29186 40230 ft 484 kts 247°
2026-04-26 19:54 26.77187 -144.36035 40227 ft 486 kts 247°
2026-04-26 19:55 26.74341 -144.42876 40224 ft 485 kts 247°
2026-04-26 19:55 26.71496 -144.49699 40230 ft 481 kts 247°
2026-04-26 19:56 26.68657 -144.56507 40231 ft 483 kts 247°
2026-04-26 19:56 26.65821 -144.63296 40227 ft 485 kts 247°
2026-04-26 19:57 26.62955 -144.70141 40227 ft 485 kts 247°
2026-04-26 19:57 26.60083 -144.76988 40214 ft 485 kts 246°
2026-04-26 19:58 26.57237 -144.83763 40225 ft 484 kts 246°
2026-04-26 19:58 26.54368 -144.90582 40225 ft 483 kts 246°
2026-04-26 19:59 26.51503 -144.97381 40224 ft 483 kts 246°
2026-04-26 19:59 26.48650 -145.04142 40226 ft 484 kts 246°
2026-04-26 20:00 26.45755 -145.10995 40226 ft 488 kts 246°
2026-04-26 20:00 26.42864 -145.17820 40226 ft 489 kts 246°
2026-04-26 20:01 26.39953 -145.24681 40222 ft 489 kts 246°
2026-04-26 20:01 26.37038 -145.31543 40222 ft 490 kts 246°
2026-04-26 20:02 26.34118 -145.38408 40223 ft 492 kts 246°
2026-04-26 20:02 26.31669 -145.44154 40224 ft 492 kts 246°
2026-04-26 20:03 26.28251 -145.52157 40221 ft 489 kts 246°
2026-04-26 20:03 26.25321 -145.59009 40219 ft 489 kts 246°
2026-04-26 20:04 26.22403 -145.65825 40217 ft 490 kts 246°
2026-04-26 20:04 26.19454 -145.72701 40225 ft 490 kts 246°
2026-04-26 20:05 26.16516 -145.79538 40220 ft 490 kts 246°
2026-04-26 20:05 26.13558 -145.86413 40217 ft 492 kts 246°
2026-04-26 20:06 26.10621 -145.93225 40214 ft 490 kts 246°
2026-04-26 20:06 26.07666 -146.00069 40212 ft 489 kts 246°
2026-04-26 20:07 26.04731 -146.06859 40217 ft 489 kts 246°
2026-04-26 20:07 26.01773 -146.13688 40213 ft 489 kts 246°
2026-04-26 20:08 25.98824 -146.20494 40197 ft 489 kts 246°
2026-04-26 20:08 25.95878 -146.27281 40215 ft 484 kts 245°
2026-04-26 20:09 25.92952 -146.34018 40213 ft 484 kts 245°
2026-04-26 20:09 25.90015 -146.40774 40213 ft 486 kts 245°
2026-04-26 20:10 25.87083 -146.47505 40207 ft 487 kts 245°
2026-04-26 20:10 25.84122 -146.54289 40216 ft 487 kts 245°
2026-04-26 20:11 25.81164 -146.61055 40209 ft 486 kts 245°
2026-04-26 20:12 25.76756 -146.71119 40205 ft 485 kts 245°
2026-04-26 20:12 25.73800 -146.77858 40211 ft 485 kts 245°
2026-04-26 20:13 25.70841 -146.84592 40198 ft 485 kts 245°
2026-04-26 20:13 25.67891 -146.91297 40202 ft 487 kts 245°
2026-04-26 20:14 25.64906 -146.98067 40200 ft 486 kts 245°
2026-04-26 20:14 25.61944 -147.04772 40206 ft 483 kts 245°
2026-04-26 20:15 25.59002 -147.11426 40191 ft 482 kts 245°
2026-04-26 20:15 25.56036 -147.18128 40201 ft 485 kts 245°
2026-04-26 20:16 25.53067 -147.24823 40201 ft 486 kts 245°
2026-04-26 20:16 25.50076 -147.31557 40200 ft 486 kts 245°
2026-04-26 20:17 25.47107 -147.38226 40197 ft 482 kts 245°
2026-04-26 20:17 25.44134 -147.44901 40199 ft 484 kts 245°
2026-04-26 20:18 25.41150 -147.51590 40197 ft 485 kts 245°
2026-04-26 20:18 25.38180 -147.58236 40195 ft 485 kts 245°
2026-04-26 20:19 25.35188 -147.64922 40193 ft 485 kts 245°
2026-04-26 20:19 25.32190 -147.71611 40193 ft 486 kts 245°
2026-04-26 20:20 25.29192 -147.78287 40195 ft 482 kts 245°
2026-04-26 20:20 25.26221 -147.84896 40195 ft 481 kts 245°
2026-04-26 20:21 25.23239 -147.91520 40189 ft 481 kts 245°
2026-04-26 20:21 25.20248 -147.98157 40195 ft 484 kts 244°
2026-04-26 20:22 25.17258 -148.04778 40192 ft 485 kts 244°
2026-04-26 20:22 25.14240 -148.11451 40190 ft 484 kts 244°
2026-04-26 20:23 25.11252 -148.18045 40187 ft 480 kts 244°
2026-04-26 20:23 25.08259 -148.24645 40186 ft 480 kts 244°
2026-04-26 20:24 25.05272 -148.31223 40186 ft 481 kts 244°
2026-04-26 20:24 25.02270 -148.37823 40184 ft 481 kts 244°
2026-04-26 20:25 24.99260 -148.44429 40190 ft 481 kts 244°
2026-04-26 20:25 24.96267 -148.50989 40188 ft 480 kts 244°
2026-04-26 20:26 24.93256 -148.57580 40190 ft 480 kts 244°
2026-04-26 20:26 24.90244 -148.64162 40173 ft 480 kts 244°
2026-04-26 20:27 24.87251 -148.70695 40192 ft 480 kts 244°
2026-04-26 20:27 24.84233 -148.77274 40187 ft 480 kts 244°
2026-04-26 20:28 24.81231 -148.83805 40173 ft 480 kts 244°
2026-04-26 20:28 24.78203 -148.90387 40184 ft 481 kts 244°
2026-04-26 20:29 24.75193 -148.96918 40182 ft 480 kts 244°
2026-04-26 20:29 24.72161 -149.03488 40167 ft 481 kts 244°
2026-04-26 20:30 24.69119 -149.10072 40181 ft 482 kts 244°
2026-04-26 20:30 24.66082 -149.16633 40179 ft 483 kts 244°
2026-04-26 20:31 24.63030 -149.23219 40186 ft 483 kts 244°
2026-04-26 20:31 24.59995 -149.29755 40180 ft 480 kts 244°
2026-04-26 20:32 24.56959 -149.36285 40180 ft 479 kts 244°
2026-04-26 20:32 24.53931 -149.42793 40174 ft 480 kts 244°
2026-04-26 20:33 24.50882 -149.49335 40173 ft 480 kts 244°
2026-04-26 20:33 24.47829 -149.55875 40175 ft 480 kts 244°
2026-04-26 20:34 24.44775 -149.62410 40175 ft 481 kts 244°
2026-04-26 20:34 24.41733 -149.68910 40172 ft 480 kts 244°
2026-04-26 20:35 24.38671 -149.75440 40174 ft 479 kts 244°
2026-04-26 20:35 24.35631 -149.81918 40173 ft 479 kts 244°
2026-04-26 20:36 24.32590 -149.88388 40169 ft 479 kts 244°
2026-04-26 20:36 24.29523 -149.94905 40170 ft 481 kts 244°
2026-04-26 20:37 24.26969 -150.00324 40167 ft 481 kts 243°
2026-04-26 20:37 24.23390 -150.07906 40165 ft 480 kts 243°
2026-04-26 20:38 24.20842 -150.13296 40167 ft 477 kts 243°
2026-04-26 20:38 24.17797 -150.19731 40166 ft 477 kts 243°
2026-04-26 20:39 24.14738 -150.26188 40167 ft 477 kts 243°
2026-04-26 20:39 24.11671 -150.32655 40167 ft 478 kts 243°
2026-04-26 20:40 24.08617 -150.39082 40165 ft 478 kts 243°
2026-04-26 20:40 24.05547 -150.45533 40158 ft 478 kts 243°
2026-04-26 20:41 24.02473 -150.51985 40163 ft 476 kts 243°
2026-04-26 20:41 23.99425 -150.58375 40156 ft 476 kts 243°
2026-04-26 20:42 23.96347 -150.64817 40161 ft 476 kts 243°
2026-04-26 20:42 23.93289 -150.71212 40158 ft 476 kts 243°
2026-04-26 20:43 23.90212 -150.77634 40160 ft 477 kts 243°
2026-04-26 20:43 23.87124 -150.84074 40159 ft 478 kts 243°
2026-04-26 20:44 23.84034 -150.90508 40153 ft 477 kts 243°
2026-04-26 20:44 23.80964 -150.96890 40154 ft 476 kts 243°
2026-04-26 20:45 23.77876 -151.03304 40154 ft 476 kts 243°
2026-04-26 20:45 23.74802 -151.09679 40154 ft 476 kts 243°
2026-04-26 20:46 23.71709 -151.16084 40155 ft 476 kts 243°
2026-04-26 20:46 23.68610 -151.22495 40151 ft 477 kts 243°
2026-04-26 20:47 23.65493 -151.28931 40150 ft 476 kts 243°
2026-04-26 20:47 23.62399 -151.35314 40148 ft 475 kts 243°
2026-04-26 20:48 23.59317 -151.41664 40147 ft 476 kts 243°
2026-04-26 20:48 23.56207 -151.48064 40149 ft 476 kts 243°
2026-04-26 20:49 23.53099 -151.54450 40147 ft 476 kts 243°
2026-04-26 20:49 23.50010 -151.60787 40143 ft 476 kts 243°
2026-04-26 20:50 23.46891 -151.67180 40139 ft 476 kts 243°
2026-04-26 20:50 23.43798 -151.73509 40143 ft 475 kts 243°
2026-04-26 20:51 23.40684 -151.79874 40146 ft 474 kts 243°
2026-04-26 20:51 23.37589 -151.86193 40141 ft 474 kts 243°
2026-04-26 20:52 23.34474 -151.92545 40138 ft 474 kts 243°
2026-04-26 20:52 23.31382 -151.98840 40142 ft 475 kts 243°
2026-04-26 20:53 23.28258 -152.05193 40139 ft 475 kts 243°
2026-04-26 20:53 23.25135 -152.11537 40138 ft 475 kts 243°
2026-04-26 20:54 23.22016 -152.17861 40135 ft 473 kts 243°
2026-04-26 20:54 23.18922 -152.24130 40128 ft 473 kts 243°
2026-04-26 20:55 23.15801 -152.30445 40135 ft 474 kts 243°
2026-04-26 20:55 23.12673 -152.36768 40129 ft 475 kts 243°
2026-04-26 20:56 23.09541 -152.43086 40133 ft 475 kts 242°
2026-04-26 20:56 23.06429 -152.49360 40132 ft 474 kts 243°
2026-04-26 20:57 23.03289 -152.55680 40125 ft 473 kts 242°
2026-04-26 20:57 23.00165 -152.61986 40126 ft 473 kts 243°
2026-04-26 20:58 22.97060 -152.68238 40131 ft 473 kts 242°
2026-04-26 20:58 22.93912 -152.74527 40126 ft 473 kts 242°
2026-04-26 20:59 22.90755 -152.80814 40133 ft 473 kts 242°
2026-04-26 20:59 22.87610 -152.87063 40126 ft 474 kts 242°
2026-04-26 21:00 22.84437 -152.93362 40127 ft 474 kts 242°
2026-04-26 21:00 22.81279 -152.99619 40126 ft 475 kts 242°
2026-04-26 21:01 22.78122 -153.05868 40127 ft 475 kts 242°
2026-04-26 21:01 22.74939 -153.12162 40125 ft 475 kts 242°
2026-04-26 21:02 22.71777 -153.18406 40124 ft 476 kts 242°
2026-04-26 21:02 22.68589 -153.24694 40123 ft 476 kts 242°
2026-04-26 21:03 22.65391 -153.30991 40125 ft 476 kts 242°
2026-04-26 21:03 22.62217 -153.37235 40115 ft 475 kts 242°
2026-04-26 21:04 22.59026 -153.43506 40117 ft 474 kts 242°
2026-04-26 21:04 22.55851 -153.49736 40114 ft 474 kts 242°
2026-04-26 21:05 22.52654 -153.56004 40107 ft 474 kts 242°
2026-04-26 21:05 22.49464 -153.62249 40122 ft 474 kts 242°
2026-04-26 21:06 22.46288 -153.68459 40123 ft 474 kts 242°
2026-04-26 21:06 22.43086 -153.74713 40120 ft 474 kts 242°
2026-04-26 21:07 22.39898 -153.80932 40111 ft 474 kts 242°
2026-04-26 21:07 22.37200 -153.87395 40110 ft 470 kts 254°
2026-04-26 21:08 22.36375 -153.94328 40117 ft 467 kts 270°
2026-04-26 21:08 22.36521 -154.01343 40114 ft 465 kts 271°
2026-04-26 21:09 22.36684 -154.08302 40109 ft 465 kts 271°
2026-04-26 21:09 22.36834 -154.15331 40109 ft 466 kts 271°
2026-04-26 21:10 22.36976 -154.22305 40114 ft 466 kts 271°
2026-04-26 21:10 22.37115 -154.29331 40115 ft 466 kts 271°
2026-04-26 21:11 22.37250 -154.36305 40101 ft 466 kts 271°
2026-04-26 21:11 22.37383 -154.43334 40111 ft 467 kts 271°
2026-04-26 21:12 22.37512 -154.50331 40110 ft 468 kts 271°
2026-04-26 21:12 22.37639 -154.57362 40111 ft 468 kts 271°
2026-04-26 21:13 22.37761 -154.64359 40110 ft 468 kts 271°
2026-04-26 21:13 22.37882 -154.71387 40111 ft 468 kts 271°
2026-04-26 21:14 22.38000 -154.78437 40111 ft 468 kts 271°
2026-04-26 21:14 22.38113 -154.85427 40110 ft 467 kts 271°
2026-04-26 21:15 22.38225 -154.92476 40108 ft 468 kts 271°
2026-04-26 21:15 22.38333 -154.99507 40103 ft 468 kts 271°
2026-04-26 21:16 22.38439 -155.06508 40108 ft 469 kts 271°
2026-04-26 21:16 22.38541 -155.13560 40108 ft 469 kts 271°
2026-04-26 21:17 22.38640 -155.20585 40107 ft 469 kts 270°
2026-04-26 21:17 22.38737 -155.27637 40108 ft 469 kts 270°
2026-04-26 21:18 22.38831 -155.34711 40102 ft 469 kts 270°
2026-04-26 21:18 22.38920 -155.41691 40105 ft 465 kts 270°
2026-04-26 21:19 22.39007 -155.48697 40105 ft 465 kts 270°
2026-04-26 21:19 22.39090 -155.55691 40108 ft 465 kts 270°
2026-04-26 21:20 22.39170 -155.62635 40104 ft 465 kts 270°
2026-04-26 21:20 22.39248 -155.69635 40108 ft 465 kts 270°
2026-04-26 21:21 22.39322 -155.76608 40105 ft 465 kts 270°
2026-04-26 21:21 22.39394 -155.83590 40105 ft 465 kts 270°
2026-04-26 21:22 22.39463 -155.90588 40102 ft 465 kts 270°
2026-04-26 21:22 22.39528 -155.97548 40102 ft 465 kts 270°
2026-04-26 21:23 22.39621 -156.08045 40104 ft 465 kts 270°
2026-04-26 21:23 22.39678 -156.15016 40100 ft 465 kts 270°
2026-04-26 21:24 22.39013 -156.21938 40102 ft 465 kts 255°
2026-04-26 21:24 22.36987 -156.27331 40103 ft 468 kts 240°
2026-04-26 21:25 22.33080 -156.32989 39761 ft 466 kts 231°
2026-04-26 21:25 22.31010 -156.35653 38888 ft 471 kts 230°
2026-04-26 21:25 22.28883 -156.38395 37741 ft 479 kts 230°
2026-04-26 21:26 22.26737 -156.41168 36878 ft 482 kts 230°
2026-04-26 21:26 22.24592 -156.43944 36164 ft 482 kts 231°
2026-04-26 21:26 22.22445 -156.46727 35447 ft 482 kts 231°
2026-04-26 21:26 22.20320 -156.49483 34699 ft 483 kts 231°
2026-04-26 21:27 22.18160 -156.52284 33838 ft 486 kts 231°
2026-04-26 21:27 22.15979 -156.55113 32866 ft 490 kts 231°
2026-04-26 21:27 22.13782 -156.57963 31687 ft 498 kts 231°
2026-04-26 21:27 22.11576 -156.60826 30560 ft 505 kts 231°
2026-04-26 21:28 22.09325 -156.63748 29596 ft 507 kts 230°
2026-04-26 21:28 22.07085 -156.66654 28969 ft 500 kts 231°
2026-04-26 21:28 22.04873 -156.69520 28324 ft 494 kts 231°
2026-04-26 21:28 22.02678 -156.72362 27664 ft 489 kts 230°
2026-04-26 21:29 22.00510 -156.75166 27037 ft 484 kts 231°
2026-04-26 21:29 21.98352 -156.77957 26412 ft 480 kts 230°
2026-04-26 21:29 21.96248 -156.80677 25789 ft 476 kts 231°
2026-04-26 21:29 21.94134 -156.83408 25169 ft 472 kts 231°
2026-04-26 21:30 21.92037 -156.86115 24544 ft 468 kts 230°
2026-04-26 21:30 21.89954 -156.88803 23927 ft 465 kts 231°
2026-04-26 21:30 21.87886 -156.91472 23254 ft 462 kts 230°
2026-04-26 21:30 21.85863 -156.94080 22606 ft 457 kts 231°
2026-04-26 21:31 21.83836 -156.96694 22018 ft 453 kts 231°
2026-04-26 21:31 21.81826 -156.99289 21371 ft 449 kts 230°
2026-04-26 21:31 21.79834 -157.01858 20748 ft 445 kts 231°
2026-04-26 21:31 21.77855 -157.04410 20128 ft 442 kts 230°
2026-04-26 21:32 21.75889 -157.06943 19505 ft 439 kts 230°
2026-04-26 21:32 21.73933 -157.09463 18873 ft 435 kts 230°
2026-04-26 21:32 21.72022 -157.11925 18232 ft 432 kts 230°
2026-04-26 21:32 21.70099 -157.14400 17540 ft 427 kts 230°
2026-04-26 21:33 21.68204 -157.16839 16926 ft 422 kts 230°
2026-04-26 21:33 21.66328 -157.19251 16293 ft 418 kts 230°
2026-04-26 21:33 21.64479 -157.21626 15600 ft 417 kts 229°
2026-04-26 21:33 21.62625 -157.24009 14949 ft 413 kts 229°
2026-04-26 21:34 21.60778 -157.26381 14307 ft 410 kts 229°
2026-04-26 21:34 21.58957 -157.28719 13631 ft 406 kts 229°
2026-04-26 21:34 21.57171 -157.31010 12970 ft 401 kts 229°
2026-04-26 21:34 21.55389 -157.33295 12339 ft 397 kts 229°
2026-04-26 21:35 21.53623 -157.35559 11691 ft 392 kts 229°
2026-04-26 21:35 21.51873 -157.37801 11069 ft 388 kts 229°
2026-04-26 21:35 21.50152 -157.40005 10725 ft 376 kts 229°
2026-04-26 21:35 21.48532 -157.42077 10623 ft 357 kts 229°
2026-04-26 21:36 21.46984 -157.44054 10520 ft 332 kts 229°
2026-04-26 21:36 21.45548 -157.45886 10400 ft 313 kts 229°
2026-04-26 21:36 21.44171 -157.47645 10261 ft 299 kts 229°
2026-04-26 21:36 21.42856 -157.49327 10110 ft 287 kts 229°
2026-04-26 21:37 21.41606 -157.50928 9998 ft 278 kts 229°
2026-04-26 21:37 21.40356 -157.52530 9874 ft 288 kts 229°
2026-04-26 21:37 21.39039 -157.54209 9795 ft 297 kts 229°
2026-04-26 21:37 21.37705 -157.55906 9590 ft 297 kts 229°
2026-04-26 21:38 21.36376 -157.57599 9356 ft 296 kts 229°
2026-04-26 21:38 21.35043 -157.59297 9173 ft 296 kts 229°
2026-04-26 21:38 21.33721 -157.60983 9014 ft 295 kts 229°
2026-04-26 21:38 21.32417 -157.62645 8863 ft 294 kts 229°
2026-04-26 21:39 21.31099 -157.64327 8687 ft 293 kts 228°
2026-04-26 21:39 21.29783 -157.65999 8536 ft 292 kts 228°
2026-04-26 21:39 21.28478 -157.67658 8360 ft 292 kts 228°
2026-04-26 21:39 21.27199 -157.69354 8208 ft 292 kts 233°
2026-04-26 21:40 21.26373 -157.71342 8055 ft 292 kts 257°
2026-04-26 21:40 21.26085 -157.73462 7912 ft 291 kts 263°
2026-04-26 21:40 21.25898 -157.75626 7749 ft 291 kts 263°
2026-04-26 21:40 21.25716 -157.77791 7593 ft 290 kts 263°
2026-04-26 21:41 21.25531 -157.79912 7437 ft 289 kts 263°
2026-04-26 21:41 21.25338 -157.82066 7281 ft 288 kts 263°
2026-04-26 21:41 21.25143 -157.84204 7127 ft 286 kts 263°
2026-04-26 21:41 21.24954 -157.86282 6998 ft 273 kts 263°
2026-04-26 21:42 21.24774 -157.88259 6863 ft 261 kts 263°
2026-04-26 21:42 21.24604 -157.90129 6719 ft 250 kts 263°
2026-04-26 21:42 21.24438 -157.91953 6572 ft 241 kts 263°
2026-04-26 21:42 21.24275 -157.93726 6427 ft 237 kts 263°
2026-04-26 21:43 21.24112 -157.95491 6288 ft 237 kts 263°
2026-04-26 21:43 21.23949 -157.97244 6165 ft 236 kts 263°
2026-04-26 21:43 21.23793 -157.98995 6014 ft 237 kts 264°
2026-04-26 21:43 21.23738 -158.00761 5913 ft 237 kts 268°
2026-04-26 21:44 21.23734 -158.02525 5804 ft 237 kts 269°
2026-04-26 21:44 21.23737 -158.04275 5676 ft 237 kts 269°
2026-04-26 21:44 21.23740 -158.06035 5572 ft 237 kts 269°
2026-04-26 21:44 21.23741 -158.07806 5450 ft 237 kts 269°
2026-04-26 21:45 21.23742 -158.09568 5330 ft 235 kts 269°
2026-04-26 21:45 21.23742 -158.11322 5213 ft 236 kts 269°
2026-04-26 21:45 21.23742 -158.13076 5094 ft 235 kts 269°
2026-04-26 21:45 21.23742 -158.14816 4980 ft 234 kts 269°
2026-04-26 21:46 21.23742 -158.16567 4858 ft 233 kts 269°
2026-04-26 21:46 21.23743 -158.18285 4733 ft 233 kts 269°
2026-04-26 21:46 21.23989 -158.20008 4608 ft 235 kts 290°
2026-04-26 21:46 21.24944 -158.21404 4520 ft 233 kts 323°
2026-04-26 21:47 21.26398 -158.22032 4402 ft 228 kts 354°
2026-04-26 21:47 21.27979 -158.22113 4291 ft 225 kts
2026-04-26 21:47 21.29545 -158.22054 4166 ft 225 kts
2026-04-26 21:47 21.31022 -158.21550 4054 ft 222 kts 32°
2026-04-26 21:48 21.32099 -158.20425 3990 ft 220 kts 58°
2026-04-26 21:48 21.32591 -158.18892 3795 ft 217 kts 83°
2026-04-26 21:48 21.32647 -158.17281 3503 ft 216 kts 88°
2026-04-26 21:48 21.32625 -158.15676 3180 ft 212 kts 88°
2026-04-26 21:49 21.32570 -158.14172 3033 ft 190 kts 90°
2026-04-26 21:49 21.32537 -158.12811 3044 ft 178 kts 87°
2026-04-26 21:49 21.32551 -158.11497 3015 ft 175 kts 86°
2026-04-26 21:49 21.32568 -158.10188 3012 ft 174 kts 86°
2026-04-26 21:50 21.32570 -158.08903 3008 ft 176 kts 89°
2026-04-26 21:50 21.32560 -158.08025 2958 ft 169 kts 88°
2026-04-26 21:50 21.32551 -158.06352 2781 ft 174 kts 87°
2026-04-26 21:50 21.32548 -158.05056 2603 ft 172 kts 88°
2026-04-26 21:51 21.32539 -158.03805 2371 ft 164 kts 87°
2026-04-26 21:51 21.32540 -158.02616 2121 ft 153 kts 88°
2026-04-26 21:51 21.32548 -158.01493 1864 ft 149 kts 85°
2026-04-26 21:51 21.32579 -158.00361 1581 ft 154 kts 89°
2026-04-26 21:52 21.32549 -157.99234 1295 ft 150 kts 92°
2026-04-26 21:52 21.32517 -157.98149 1042 ft 141 kts 89°
2026-04-26 21:52 21.32531 -157.97112 751 ft 137 kts 86°
2026-04-26 21:52 21.32546 -157.96080 469 ft 141 kts 88°
2026-04-26 21:53 21.32533 -157.95004 241 ft 149 kts 88°
2026-04-26 21:53 21.32526 -157.93928 64 ft 136 kts 87°
2026-04-26 21:53 21.32528 -157.93004 31 ft 107 kts 89°
2026-04-26 21:53 21.32526 -157.92461 31 ft 50 kts 89°
2026-04-26 21:54 21.32527 -157.92115 30 ft 44 kts 91°
2026-04-26 21:54 21.32599 -157.91946 30 ft 22 kts 27°
2026-04-26 21:54 21.32672 -157.91909 30 ft 10 kts 26°
2026-04-26 21:54 21.32743 -157.91873 30 ft 12 kts 25°
2026-04-26 21:55 21.32830 -157.91851 30 ft 14 kts
2026-04-26 21:55 21.32931 -157.91833 30 ft 15 kts 10°
2026-04-26 21:55 21.32999 -157.91820 30 ft 5 kts
2026-04-26 21:55 21.33043 -157.91813 30 ft 8 kts
2026-04-26 21:56 21.33069 -157.91808 30 ft 0 kts